N3SBK Weather Reports


time (UTC)temp
F
wind
direction
speed
knots
gust
knots
rain 1hr
in
rain 24hr
in
rain mn
in
humidity
%
barometer
mb
20260831063519 67 83 0.0 0.0 0.00 0.00 0.00 92 1012.2
20260831063020 67 82 0.0 0.0 0.00 0.00 0.00 92 1012.1
20260831062514 67 82 0.0 0.0 0.00 0.00 0.00 92 1012.2
20260831062014 67 82 0.0 0.0 0.00 0.00 0.00 92 1012.2
20260831061512 67 83 0.0 0.0 0.00 0.00 0.00 91 1012.1
20260831061009 68 83 0.0 0.0 0.00 0.00 0.00 91 1012.3
20260831060508 68 83 0.0 0.0 0.00 0.00 0.00 91 1012.2
20260831060003 68 83 0.0 0.0 0.00 0.00 0.00 91 1012.2
20260831055458 68 83 0.0 0.0 0.00 0.00 0.00 92 1012.3
20260831054954 68 83 0.0 0.0 0.00 0.00 0.00 92 1012.3
20260831054453 68 83 0.0 0.0 0.00 0.00 0.00 92 1012.5
20260831053953 68 83 0.0 0.0 0.00 0.00 0.00 93 1012.6
20260831053451 68 83 0.0 0.0 0.00 0.00 0.00 93 1012.6
20260831052945 68 83 0.0 0.0 0.00 0.00 0.00 93 1012.4
20260831052445 68 83 0.0 0.0 0.00 0.00 0.00 93 1012.6
20260831051944 68 83 0.0 0.0 0.00 0.00 0.00 93 1012.7
20260831051443 68 83 0.0 0.0 0.00 0.00 0.00 93 1012.9
20260831050937 68 83 0.0 0.0 0.00 0.00 0.00 93 1012.9
20260831050437 68 83 0.0 0.0 0.00 0.00 0.00 93 1012.9
20260831045936 68 83 0.0 0.0 0.00 0.00 0.00 93 1012.7
20260831045435 69 83 0.0 0.0 0.00 0.00 0.00 93 1012.7
20260831044930 69 83 0.0 0.0 0.00 0.00 0.00 93 1013.0
20260831044425 69 82 0.0 0.0 0.00 0.00 0.00 92 1012.9
20260831043921 69 82 0.0 0.0 0.00 0.00 0.00 92 1013.0
20260831043421 69 82 0.0 0.0 0.00 0.00 0.00 92 1013.1
20260831042916 69 82 0.0 0.0 0.00 0.00 0.00 92 1013.2
20260831042416 69 83 0.0 0.0 0.00 0.00 0.00 92 1013.2
20260831041911 69 83 0.0 0.0 0.00 0.00 0.00 92 1013.1
20260831041410 69 83 0.0 0.0 0.00 0.00 0.00 92 1013.1
20260831040905 69 83 0.0 0.0 0.00 0.00 0.00 91 1013.2
20260831040400 69 83 0.0 0.0 0.00 0.00 0.00 91 1013.3
20260831035857 69 83 0.0 0.0 0.00 0.00 0.00 91 1013.3
20260831035357 69 83 0.0 0.0 0.00 0.00 0.00 91 1013.3
20260831034851 69 85 0.0 0.0 0.00 0.00 0.00 91 1013.3
20260831034347 69 84 0.0 0.0 0.00 0.00 0.00 91 1013.2
20260831033842 69 71 0.0 0.0 0.00 0.00 0.00 91 1013.2
20260831033342 69 70 0.0 0.0 0.00 0.00 0.00 91 1013.1
20260831032838 69 70 0.0 0.0 0.00 0.00 0.00 91 1013.2
20260831032332 69 84 0.0 0.0 0.00 0.00 0.00 91 1013.0
20260831031827 69 84 0.0 0.0 0.00 0.00 0.00 91 1013.2
20260831031326 69 84 0.0 0.0 0.00 0.00 0.00 90 1013.0
20260831030822 69 84 0.0 0.0 0.00 0.00 0.00 90 1013.2
20260831030320 69 84 0.0 0.0 0.00 0.00 0.00 90 1013.2
20260831025820 69 84 0.0 0.0 0.00 0.00 0.00 90 1013.2
20260831025320 69 85 0.0 0.0 0.00 0.00 0.00 90 1013.1
20260831024815 69 85 0.0 0.0 0.00 0.00 0.00 90 1013.0
20260831024314 70 85 0.0 0.0 0.00 0.00 0.00 90 1013.0
20260831023814 70 85 0.0 0.0 0.00 0.00 0.00 90 1013.1
20260831023312 70 85 0.0 0.0 0.00 0.00 0.00 90 1013.0
20260831022808 70 85 0.0 0.0 0.00 0.00 0.00 90 1012.9
20260831022306 70 85 0.0 0.0 0.00 0.00 0.00 90 1013.0
20260831021802 70 85 0.0 0.0 0.00 0.00 0.00 90 1012.9
20260831021302 70 85 0.0 0.0 0.00 0.00 0.00 90 1012.9
20260831020758 70 85 0.0 0.0 0.00 0.00 0.00 90 1013.0
20260831020257 70 85 0.0 0.0 0.00 0.00 0.00 90 1012.9
20260831015753 70 85 0.0 0.0 0.00 0.00 0.00 90 1013.0
20260831015249 70 85 0.0 0.0 0.00 0.00 0.00 89 1012.7
20260831014748 70 85 0.0 0.0 0.00 0.00 0.00 89 1012.7
20260831014248 70 85 0.0 0.0 0.00 0.00 0.00 89 1012.7
20260831013745 70 85 0.0 0.0 0.00 0.00 0.00 89 1012.6
20260831013244 71 85 0.0 0.0 0.00 0.00 0.00 89 1012.5
20260831012739 71 85 0.0 0.0 0.00 0.00 0.00 90 1012.6
20260831012235 71 85 0.0 0.0 0.00 0.00 0.00 90 1012.4
20260831011733 71 84 0.0 0.0 0.00 0.00 0.00 90 1012.3
20260831011230 71 84 0.0 0.0 0.00 0.00 0.00 90 1012.4
20260831010725 71 85 0.0 0.0 0.00 0.00 0.00 89 1012.4
20260831010225 71 84 0.0 0.0 0.00 0.00 0.00 89 1012.3
20260831005721 71 85 0.0 0.0 0.00 0.00 0.00 89 1012.0
20260831005216 71 85 0.0 0.0 0.00 0.00 0.00 89 1012.0
20260831004711 71 85 0.0 0.0 0.00 0.00 0.00 89 1011.9
20260831004207 71 85 0.0 0.0 0.00 0.00 0.00 88 1012.1
20260831003703 71 84 0.0 0.0 0.00 0.00 0.00 88 1012.0
20260831003159 72 85 0.0 0.0 0.00 0.00 0.00 88 1011.8
20260831002657 72 85 0.0 0.0 0.00 0.00 0.00 88 1011.7
20260831002152 72 84 0.0 0.0 0.00 0.00 0.00 88 1011.6
20260831001649 72 84 0.0 0.0 0.00 0.00 0.00 88 1011.7
20260831001143 72 85 0.0 0.0 0.00 0.00 0.00 87 1011.7
20260831000640 72 84 0.0 0.0 0.00 0.00 0.00 86 1011.7
20260831000140 72 85 0.0 0.0 0.00 0.00 0.00 87 1011.6
20260830235639 73 85 0.0 0.0 0.00 0.00 0.00 87 1011.4
20260830235134 73 84 0.0 0.0 0.00 0.00 0.00 87 1011.3
20260830234629 73 84 0.0 0.0 0.00 0.00 0.00 87 1011.3
20260830234124 73 84 0.0 0.0 0.00 0.00 0.00 86 1011.5
20260830233620 73 84 0.0 0.0 0.00 0.00 0.00 85 1011.2
20260830233115 74 84 0.0 0.0 0.00 0.00 0.00 85 1011.1
20260830232612 74 85 0.0 0.0 0.00 0.00 0.00 85 1011.6
20260830232107 74 85 0.0 0.0 0.00 0.00 0.00 84 1011.4
20260830231603 74 84 0.0 0.0 0.00 0.00 0.00 84 1011.3
20260830231102 74 84 0.0 0.0 0.00 0.00 0.00 83 1011.2
20260830230558 74 157 0.0 0.0 0.00 0.00 0.00 82 1011.4
20260830230052 75 49 0.0 0.0 0.00 0.00 0.00 82 1011.3
20260830225548 75 49 0.0 0.0 0.00 0.00 0.00 83 1011.3
20260830225048 75 48 0.0 0.0 0.00 0.00 0.00 83 1011.5
20260830224546 75 49 0.0 0.0 0.00 0.00 0.00 83 1011.5
20260830224043 75 48 0.0 0.0 0.00 0.00 0.00 83 1011.4
20260830223539 75 48 0.0 0.0 0.00 0.00 0.00 81 1011.2
20260830223039 75 48 0.0 0.0 0.00 0.00 0.00 80 1011.7
20260830222534 76 48 0.0 0.0 0.00 0.00 0.00 81 1011.5
20260830222030 76 48 0.0 0.0 0.00 0.00 0.00 81 1011.3
20260830221526 76 48 0.0 0.0 0.00 0.00 0.00 81 1011.4
20260830221022 76 48 0.0 0.0 0.00 0.00 0.00 80 1011.3
20260830220521 76 46 0.0 0.0 0.00 0.00 0.00 79 1011.5
20260830220019 76 37 0.9 0.9 0.00 0.00 0.00 80 1011.4
20260830215514 77 69 0.0 0.0 0.00 0.00 0.00 81 1011.3
20260830215008 77 69 0.0 0.0 0.00 0.00 0.00 82 1011.5
20260830214504 77 67 0.0 0.0 0.00 0.00 0.00 81 1011.6
20260830213958 76 67 0.0 0.0 0.00 0.00 0.00 79 1011.5
20260830213453 76 67 0.0 0.0 0.00 0.00 0.00 78 1011.4
20260830212948 77 67 0.0 0.0 0.00 0.00 0.00 77 1011.3
20260830212444 77 68 0.0 0.0 0.00 0.00 0.00 79 1011.4
20260830211943 76 67 0.0 0.0 0.00 0.00 0.00 78 1011.7
20260830211438 77 67 0.0 0.0 0.00 0.00 0.00 78 1011.4
20260830210934 77 67 0.0 0.0 0.00 0.00 0.00 77 1011.6
20260830210433 77 68 0.0 0.0 0.00 0.00 0.00 77 1011.4
20260830205931 77 68 0.0 0.0 0.00 0.00 0.00 77 1011.4
20260830205430 77 68 0.0 0.0 0.00 0.00 0.00 76 1011.4
20260830204926 77 68 0.0 0.0 0.00 0.00 0.00 75 1011.4
20260830204425 78 68 0.0 0.0 0.00 0.00 0.00 74 1011.6
20260830203920 78 68 0.0 0.0 0.00 0.00 0.00 74 1011.5
20260830203416 78 68 0.0 0.0 0.00 0.00 0.00 72 1011.5
20260830202915 79 65 0.0 0.0 0.00 0.00 0.00 70 1011.7
20260830202411 80 65 0.0 0.0 0.00 0.00 0.00 66 1011.8
20260830201907 81 69 0.0 0.0 0.00 0.00 0.00 65 1011.7
20260830201400 81 43 0.0 0.0 0.00 0.00 0.00 64 1011.7
20260830200855 80 60 0.0 0.0 0.00 0.00 0.00 64 1011.6
20260830200355 82 64 0.0 0.0 0.00 0.00 0.00 63 1011.7
20260830195845 83 23 0.0 0.0 0.00 0.00 0.00 57 1011.7
20260830195344 84 189 0.0 0.0 0.00 0.00 0.00 57 1011.8
20260830194843 83 45 0.0 0.0 0.00 0.00 0.00 62 1012.1
20260830194336 82 43 0.0 0.9 0.00 0.00 0.00 62 1012.2
20260830193832 82 44 0.0 0.9 0.00 0.00 0.00 62 1012.2
20260830193331 79 156 0.0 0.9 0.00 0.00 0.00 67 1012.1
20260830192827 77 83 0.0 0.0 0.00 0.00 0.00 75 1012.4
20260830192327 77 84 0.0 0.0 0.00 0.00 0.00 73 1012.4
20260830191822 77 85 0.0 0.0 0.00 0.00 0.00 72 1012.5
20260830191322 77 89 0.0 0.0 0.00 0.00 0.00 72 1012.7
20260830190818 77 79 0.0 0.0 0.00 0.00 0.00 71 1012.6
20260830190318 78 62 0.0 0.9 0.00 0.00 0.00 69 1012.7
20260830185816 79 70 0.0 0.9 0.00 0.00 0.00 66 1012.7
20260830185312 80 64 0.0 0.0 0.00 0.00 0.00 66 1012.7
20260830184807 80 44 0.0 0.0 0.00 0.00 0.00 63 1012.7
20260830184306 81 15 0.0 0.9 0.00 0.00 0.00 61 1012.9
20260830183802 83 306 0.0 1.7 0.00 0.00 0.00 59 1012.7
20260830183301 84 349 0.0 0.9 0.00 0.00 0.00 58 1012.6
20260830182757 85 24 0.9 1.7 0.00 0.00 0.00 55 1012.9
20260830182253 84 34 0.0 0.9 0.00 0.00 0.00 61 1012.7
20260830181749 82 87 0.0 0.9 0.00 0.00 0.00 58 1012.7
20260830181244 83 14 1.7 1.7 0.00 0.00 0.00 57 1012.9
20260830180743 83 148 0.0 0.9 0.00 0.00 0.00 56 1013.0
20260830180238 84 116 0.0 1.7 0.00 0.00 0.00 56 1012.9
20260830175737 83 224 0.9 1.7 0.00 0.00 0.00 55 1013.1
20260830175233 84 281 0.9 0.9 0.00 0.00 0.00 59 1013.1
20260830174732 84 215 0.0 1.7 0.00 0.00 0.00 59 1013.2
20260830174229 82 66 0.0 0.0 0.00 0.00 0.00 64 1013.3
20260830173728 83 29 0.0 3.5 0.00 0.00 0.00 59 1013.5
20260830173223 82 228 0.0 0.0 0.00 0.00 0.00 61 1013.4
20260830172720 83 174 0.9 2.6 0.00 0.00 0.00 59 1013.6
20260830172217 83 274 0.0 0.9 0.00 0.00 0.00 62 1013.6
20260830171712 83 46 0.0 0.9 0.00 0.00 0.00 62 1013.4
20260830171207 82 298 0.0 0.0 0.00 0.00 0.00 67 1013.6
20260830170701 82 60 0.0 0.9 0.00 0.00 0.00 67 1013.8
20260830170200 81 75 0.0 0.0 0.00 0.00 0.00 67 1013.9
20260830165655 82 118 0.0 0.9 0.00 0.00 0.00 65 1013.7
20260830165151 83 108 0.9 0.9 0.00 0.00 0.00 63 1013.7
20260830164647 83 102 0.0 1.7 0.00 0.00 0.00 60 1013.8
20260830164143 82 111 0.0 0.9 0.00 0.00 0.00 64 1013.8
20260830163639 81 302 0.9 0.9 0.00 0.00 0.00 71 1013.7
20260830163139 81 137 0.0 0.9 0.00 0.00 0.00 67 1013.5
20260830162634 81 151 0.0 0.9 0.00 0.00 0.00 66 1013.6
20260830162130 80 83 0.0 0.9 0.00 0.00 0.00 69 1013.7
20260830161630 79 276 0.0 0.9 0.00 0.00 0.00 72 1013.7
20260830161125 79 298 0.0 0.9 0.00 0.00 0.00 71 1013.8
20260830160621 79 90 0.0 0.9 0.00 0.00 0.00 75 1013.7
20260830160116 79 207 0.0 0.0 0.00 0.00 0.00 74 1013.7
20260830155612 78 303 0.0 0.0 0.00 0.00 0.00 75 1013.7
20260830155108 78 100 0.0 0.0 0.00 0.00 0.00 77 1013.7
20260830154602 77 90 0.0 0.0 0.00 0.00 0.00 76 1013.8
20260830154059 77 75 0.0 0.0 0.00 0.00 0.00 76 1013.8
20260830153555 77 35 0.0 0.9 0.00 0.00 0.00 77 1014.0
20260830153055 77 171 0.9 0.9 0.00 0.00 0.00 77 1013.8
20260830152549 77 198 0.9 0.9 0.00 0.00 0.00 76 1013.9
20260830152048 77 313 0.0 0.0 0.00 0.00 0.00 77 1013.7
20260830151548 77 25 0.0 0.0 0.00 0.00 0.00 78 1013.7
20260830151043 76 48 0.0 0.0 0.00 0.00 0.00 77 1013.8
20260830150542 76 220 0.0 0.0 0.00 0.00 0.00 78 1013.8
20260830150037 76 113 0.9 0.9 0.00 0.00 0.00 77 1013.8
20260830145537 75 99 0.0 0.9 0.00 0.00 0.00 81 1013.7
20260830145032 74 135 0.0 0.0 0.00 0.00 0.00 82 1013.9
20260830144528 73 86 0.0 0.0 0.00 0.00 0.00 82 1013.9
20260830144024 73 121 0.0 0.0 0.00 0.00 0.00 82 1013.7
20260830143520 73 90 0.0 0.9 0.00 0.00 0.00 82 1013.7
20260830143017 73 69 0.0 0.9 0.00 0.00 0.00 81 1013.7
20260830142513 73 97 0.0 0.0 0.00 0.00 0.00 82 1013.6
20260830142008 73 88 0.0 0.0 0.00 0.00 0.00 82 1013.6
20260830141503 73 184 0.9 0.9 0.00 0.00 0.00 82 1013.8
20260830141003 72 101 0.0 0.0 0.00 0.00 0.00 83 1013.7
20260830140459 72 100 0.0 0.0 0.00 0.00 0.00 83 1013.5
20260830135958 71 76 0.0 0.0 0.00 0.00 0.00 84 1013.6
20260830135453 71 78 0.0 0.0 0.00 0.00 0.00 85 1013.5
20260830134949 71 78 0.0 0.0 0.00 0.00 0.00 85 1013.6
20260830134444 71 28 0.0 0.0 0.00 0.00 0.00 86 1013.6
20260830133939 70 28 0.0 0.0 0.00 0.00 0.00 86 1013.4
20260830133435 70 53 0.0 0.0 0.00 0.00 0.00 86 1013.5
20260830132930 70 83 0.0 0.0 0.00 0.00 0.00 86 1013.3
20260830132427 69 28 0.0 0.0 0.00 0.00 0.00 86 1013.3
20260830131926 69 94 0.0 0.0 0.00 0.00 0.00 89 1013.5
20260830131425 69 94 0.0 0.0 0.00 0.00 0.00 89 1013.5
20260830130920 68 94 0.0 0.0 0.00 0.00 0.00 90 1013.6
20260830130416 68 94 0.0 0.0 0.00 0.00 0.00 90 1013.7
20260830125914 67 94 0.0 0.0 0.00 0.00 0.00 90 1013.6
20260830125410 67 94 0.0 0.0 0.00 0.00 0.00 91 1013.7
20260830124908 67 94 0.0 0.0 0.00 0.00 0.00 91 1013.3
20260830124403 67 94 0.0 0.0 0.00 0.00 0.00 90 1013.5
20260830123859 66 94 0.0 0.0 0.00 0.00 0.00 91 1013.6
20260830123356 66 94 0.0 0.0 0.00 0.00 0.00 91 1013.5
20260830122854 66 95 0.0 0.0 0.00 0.00 0.00 91 1013.5
20260830122348 66 95 0.0 0.0 0.00 0.00 0.00 91 1013.6
20260830121844 65 95 0.0 0.0 0.00 0.00 0.00 91 1013.6
20260830121343 65 95 0.0 0.0 0.00 0.00 0.00 92 1013.6
20260830120838 65 95 0.0 0.0 0.00 0.00 0.00 92 1013.4
20260830120334 65 95 0.0 0.0 0.00 0.00 0.00 92 1013.5
20260830115830 65 95 0.0 0.0 0.00 0.00 0.00 92 1013.5
20260830115326 64 95 0.0 0.0 0.00 0.00 0.00 93 1013.6
20260830114821 64 95 0.0 0.0 0.00 0.00 0.00 93 1013.7
20260830114318 64 95 0.0 0.0 0.00 0.00 0.00 93 1013.6
20260830113812 64 95 0.0 0.0 0.00 0.00 0.00 93 1013.5
20260830113307 64 95 0.0 0.0 0.00 0.00 0.00 93 1013.5
20260830112803 64 95 0.0 0.0 0.00 0.00 0.00 93 1013.6
20260830112259 63 95 0.0 0.0 0.00 0.00 0.00 93 1013.7
20260830111755 63 95 0.0 0.0 0.00 0.00 0.00 92 1013.5
20260830111250 64 54 0.0 0.0 0.00 0.00 0.00 92 1013.6
20260830110750 64 33 0.0 0.0 0.00 0.00 0.00 92 1013.5
20260830110247 64 34 0.0 0.0 0.00 0.00 0.00 93 1013.4
20260830105745 64 101 0.0 0.0 0.00 0.00 0.00 93 1013.3
20260830105241 64 101 0.0 0.0 0.00 0.00 0.00 93 1013.4
20260830104738 64 101 0.0 0.0 0.00 0.00 0.00 93 1013.4
20260830104235 64 101 0.0 0.0 0.00 0.00 0.00 93 1013.3
20260830103733 64 101 0.0 0.0 0.00 0.00 0.00 94 1013.4
20260830103230 64 101 0.0 0.0 0.00 0.00 0.00 93 1013.3
20260830102727 64 101 0.0 0.0 0.00 0.00 0.00 93 1013.3
20260830102224 64 101 0.0 0.0 0.00 0.00 0.00 93 1013.4
20260830101720 64 101 0.0 0.0 0.00 0.00 0.00 92 1013.4
20260830101215 64 101 0.0 0.0 0.00 0.00 0.00 92 1013.3
20260830100709 64 101 0.0 0.0 0.00 0.00 0.00 92 1013.4
20260830100208 64 101 0.0 0.0 0.00 0.00 0.00 93 1013.6
20260830095708 64 101 0.0 0.0 0.00 0.00 0.00 93 1013.6
20260830095204 63 101 0.0 0.0 0.00 0.00 0.00 93 1013.5
20260830094659 63 101 0.0 0.0 0.00 0.00 0.00 93 1013.6
20260830094155 63 101 0.0 0.0 0.00 0.00 0.00 92 1013.5
20260830093650 63 101 0.0 0.0 0.00 0.00 0.00 92 1013.4
20260830093147 63 101 0.0 0.0 0.00 0.00 0.00 92 1013.5
20260830092646 63 101 0.0 0.0 0.00 0.00 0.00 92 1013.5
20260830092144 63 101 0.0 0.0 0.00 0.00 0.00 92 1013.5
20260830091644 63 102 0.0 0.0 0.00 0.00 0.00 92 1013.4
20260830091142 63 103 0.0 0.0 0.00 0.00 0.00 92 1013.6
20260830090638 63 132 0.0 0.0 0.00 0.00 0.00 92 1013.6
20260830090133 63 96 0.0 0.0 0.00 0.00 0.00 92 1013.4
20260830085632 63 96 0.0 0.0 0.00 0.00 0.00 92 1013.4
20260830085129 63 97 0.0 0.0 0.00 0.00 0.00 91 1013.5
20260830084624 63 96 0.0 0.0 0.00 0.00 0.00 91 1013.4
20260830084119 63 95 0.0 0.0 0.00 0.00 0.00 91 1013.4
20260830083614 63 95 0.0 0.0 0.00 0.00 0.00 91 1013.4
20260830083115 63 95 0.0 0.0 0.00 0.00 0.00 91 1013.5
20260830082615 63 95 0.0 0.0 0.00 0.00 0.00 91 1013.5
20260830082111 63 95 0.0 0.0 0.00 0.00 0.00 91 1013.5
20260830081607 63 95 0.0 0.0 0.00 0.00 0.00 91 1013.5
20260830081105 63 95 0.0 0.0 0.00 0.00 0.00 90 1013.5
20260830080600 63 95 0.0 0.0 0.00 0.00 0.00 90 1013.7
20260830080055 63 95 0.0 0.0 0.00 0.00 0.00 90 1013.6
20260830075550 64 95 0.0 0.0 0.00 0.00 0.00 89 1013.7
20260830075050 64 95 0.0 0.0 0.00 0.00 0.00 89 1013.7
20260830074547 64 95 0.0 0.0 0.00 0.00 0.00 89 1013.6
20260830074042 64 95 0.0 0.0 0.00 0.00 0.00 88 1013.7
20260830073538 64 95 0.0 0.0 0.00 0.00 0.00 87 1013.7
20260830073033 64 95 0.0 0.0 0.00 0.00 0.00 87 1013.7
20260830072528 64 95 0.0 0.0 0.00 0.00 0.00 88 1013.5
20260830072023 64 95 0.0 0.0 0.00 0.00 0.00 88 1013.8
20260830071518 64 95 0.0 0.0 0.00 0.00 0.00 87 1013.6
20260830071015 64 95 0.0 0.0 0.00 0.00 0.00 87 1013.8
20260830070511 65 95 0.0 0.0 0.00 0.00 0.00 86 1013.7
20260830070011 65 95 0.0 0.0 0.00 0.00 0.00 87 1013.6
20260830065510 65 95 0.0 0.0 0.00 0.00 0.00 86 1013.8
20260830065008 65 95 0.0 0.0 0.00 0.00 0.00 86 1013.5
20260830064503 65 95 0.0 0.0 0.00 0.00 0.00 85 1013.6
20260830063958 65 95 0.0 0.0 0.00 0.00 0.00 85 1013.7